Location: Madrid
(40.4000°N, 3.6830°W)
Time: 13:51:21
(UTC+01:00)

ISS - Pass Details

Date: 09 December 2017
Orbit: 402 x 406 km, 51.6° (Epoch: 16 December)

Event Time Altitude Azimuth Distance (km) Brightness Sun altitude
Rises 19:52:48 0° 313° (NW) 2,331 0.5 -23.0°
Reaches altitude 10° 19:55:14 10° 330° (NNW) 1,467 -0.8 -23.4°
Enters shadow 19:55:30 11° 333° (NNW) 1,388 -1.0 -23.5°
